Overview Statistics Trail Chart Weather Telemetry Raw packets
 

This is the latest recevied weather packets stored in our database for station/object HB9FHL-13. If no packets are shown the sender has not sent any weather packets the latest 10 day(s).

<< 56 57 58 59 60 61 62 >>
Time Temp. Humidity Pressure Rain* Wind** Luminosity Snow
1788336820 18.89° C - 1021.8 hPa 0 mm - - -
1788336520 18.89° C - 1025.2 hPa 0 mm - - -
1788336219 18.89° C - 1023.8 hPa 0 mm - - -
1788335919 18.33° C - 1023.2 hPa 0 mm - - -
1788335618 17.78° C - 1023.6 hPa 0 mm - - -
1788335318 18.89° C - 1024.3 hPa 0 mm - - -
1788335017 18.89° C - 1023 hPa 0 mm - - -
1788334717 18.89° C - 1022.5 hPa 0 mm - - -
1788334416 18.89° C - 1024.5 hPa 0 mm - - -
1788334116 18.89° C - 1023.4 hPa 0 mm - - -
1788333816 18.89° C - 1022.6 hPa 0 mm - - -
1788333515 19.44° C - 1022.6 hPa 0 mm - - -
1788333214 20.56° C - 1023.1 hPa 0 mm - - -
1788332914 19.44° C - 1022.4 hPa 0 mm - - -
1788332614 20° C - 1023 hPa 0 mm - - -
1788332313 20° C - 1024.4 hPa 0 mm - - -
1788332013 20° C - 1022.7 hPa 0 mm - - -
1788331711 20° C - 1023.8 hPa 0 mm - - -
1788331408 19.44° C - 1023.6 hPa 0 mm - - -
1788331108 19.44° C - 1023.8 hPa 0 mm - - -
1788330807 18.89° C - 1022.7 hPa 0 mm - - -
1788330578 18.33° C - 1022.3 hPa 0 mm - - -
1788330507 18.33° C - 1022.3 hPa 0 mm - - -
1788330206 17.78° C - 1025.2 hPa 0 mm - - -
1788329910 17.78° C - 1024.9 hPa 0 mm - - -

* Rain since midnight (hover to see other rain measurements)
** Current wind speed in m/s (hover to see current wind gust speed)